Flag for U.S.A. Weather past 2 weeks in Albuquerque, New Mexico, U.S.A.

Now
73 °F

Passing clouds.


Feels Like: 77 °F
Forecast: 67 / 86 °F
Wind: 9 mph from Northwest

Location: Albuquerque International Airport

Current Time: Jul 28, 2014 at 2:31:33 AM

Latest Report: Jul 28, 2014 at 1:52 AM


Visibility: 10 mi

Pressure: 30.08 "Hg

Humidity: 57%

Dew point: 57 °F

Location of AlbuquerqueLocation

Historic Weather in Albuquerque — Graph

°F

Albuquerque temperature yesterday

Maximum temperature yesterday: 92 °F (at 12:52 PM)
Minimum temperature yesterday: 74 °F (at 8:52 PM)
Average temperature yesterday: 80 °F

Past Weeks' High & Low Weather Summary

 TemperatureHumidityPressure
High99 °F (Jul 26, 3:52 PM)87% (Jul 15, 5:52 AM)30.36 "Hg (Jul 15, 5:52 AM)
Low62 °F (Jul 15, 7:52 AM)12% (Jul 26, 6:52 PM)29.73 "Hg (Jul 17, 5:52 PM)
Average79 °F41%29.93 "Hg
* Reported Jul 13 12:52 AM — Jul 28 12:52 AM, Albuquerque, Weather by CustomWeather, © 2014

Note: Actual official high and low records may vary slightly from our data, if they occured in-between our weather recording intervals... More about our weather records

Advertising

Albuquerque weather history for previous 24 hours

 ConditionsComfort  
Time TempWeatherWind HumidityBarometerVisibility
12:52 AM
Jul 28
77 °FPassing clouds.17 mph45%30.04 "Hg10 mi
11:59 PM
Jul 27
78 °FOvercast.15 mph45%30.33 "Hg10 mi
10:52 PM77 °FPassing clouds.14 mph47%30.01 "Hg10 mi
9:52 PM75 °FPassing clouds.12 mph48%30.00 "Hg10 mi
8:52 PM74 °FPassing clouds.13 mph50%29.99 "Hg10 mi
7:52 PM75 °FBroken clouds.13 mph50%29.98 "Hg10 mi
7:04 PM75 °FBroken clouds.15 mph48%30.24 "Hg10 mi
6:52 PM76 °FThundershowers. Partly sunny.23 mph47%29.98 "Hg10 mi
5:52 PM78 °FBroken clouds.20 mph37%29.95 "Hg10 mi
4:52 PM80 °FBroken clouds.24 mph38%29.93 "Hg10 mi
3:52 PM78 °FThundershowers. Broken clouds.36 mph46%29.93 "Hg10 mi
3:00 PM88 °FThunderstorms. Broken clouds.8 mph29%30.20 "Hg10 mi
1:52 PM83 °FThunderstorms. Scattered clouds.18 mph43%29.92 "Hg10 mi
12:52 PM92 °FScattered clouds.12 mph24%29.91 "Hg10 mi
11:52 AM89 °FScattered clouds.6 mph26%29.95 "Hg10 mi
10:52 AM86 °FScattered clouds.5 mph30%29.97 "Hg10 mi
9:52 AM83 °FScattered clouds.7 mph34%29.98 "Hg10 mi
8:52 AM79 °FBroken clouds.9 mph39%29.98 "Hg10 mi
7:52 AM78 °FBroken clouds.7 mph40%29.96 "Hg10 mi
6:52 AM76 °FPassing clouds.5 mph42%29.96 "Hg10 mi
5:52 AM78 °FPassing clouds.5 mph36%29.94 "Hg10 mi
4:52 AM80 °FPassing clouds.13 mph32%29.91 "Hg10 mi
3:52 AM80 °FPartly cloudy.9 mph34%29.90 "Hg10 mi
2:52 AM79 °FPartly cloudy.12 mph34%29.89 "Hg10 mi
Weather by CustomWeather, © 2014

See weather overviewHow to use our weather pages